Regional Weather Roundup
Issued by NWS Kansas City/Pleasant Hill, MO

Home | Current Version | Previous Version | Text Only | Print | Product List | Glossary On
Versions: 1 2 3 4 5 6 7 8 9 10 11 12 13 14 15 16 17 18 19 20 21 22 23 24 25 26 27 28 29 30 31 32 33 34 35 36 37 38 39 40 41 42 43 44 45 46 47 48 49 50
000
ASUS43 KEAX 231510
RWREAX

WEATHER ROUNDUP FOR EASTERN KANSAS AND NORTHWEST MISSOURI
NATIONAL WEATHER SERVICE KANSAS CITY/PLEASANT HILL MO
1000 AM CDT MON OCT 23 2017

KSZ040-057-103>105-MOZ028-029-037-043-231600-
...KANSAS CITY METROPOLITAN AREA...

CITY           SKY/WX    TMP DP  RH WIND       PRES   REMARKS
K.C. INTL      PTSUNNY   54  42  64 W10       29.93S
K.C. DOWNTOWN  SUNNY     56  43  61 W10       29.93R
LEES SUMMIT    SUNNY     56  42  59 W15       29.93S
OLATHE - IXD   CLOUDY    54  43  66 W12       29.95S
OLATHE - OJC   SUNNY     54  41  61 W10       29.94S
LAWRENCE       PTSUNNY   53  45  74 W8        29.95R

$$

MOZ001>008-011>017-020>025-030>033-038>040-044>046-053-054-231600-
...NORTHERN AND CENTRAL MISSOURI...

CITY           SKY/WX    TMP DP  RH WIND       PRES   REMARKS
ST. JOSEPH     MOSUNNY   56  42  59 NW14G20   29.95R
MOSBY          SUNNY     55  45  67 W7        29.92S
WARRENSBURG    SUNNY     54  45  71 S7        29.92F
WHITEMAN AFB   MOSUNNY   54  46  73 S13       29.88F
CLINTON        SUNNY     54  45  71 S8        29.95F
SEDALIA        SUNNY     55  48  77 SW14      29.94F
WARSAW         NOT AVBL
CHILLICOTHE      N/A     53  44  71 S6        29.92S
KIRKSVILLE     CLOUDY    50  46  86 SW7       29.89F

$$

MOZ041-047>049-056>058-063>065-088>090-097-231600-
...EASTERN AND SOUTHERN MISSOURI...

CITY           SKY/WX    TMP DP  RH WIND       PRES   REMARKS
ST. LOUIS INTL CLOUDY    55  49  80 NW8       29.93S
SPIRIT OF STL  LGT RAIN  55  51  86 W7        29.93S
COLUMBIA       SUNNY     56  45  66 SW9       29.93F
JEFFERSON CITY MOSUNNY   54  44  69 CALM      29.95F
ROLLA          SUNNY     53  47  79 W9        29.97S
SPRINGFIELD    SUNNY     56  45  66 SW7       30.00F
BRANSON        SUNNY     54  43  66 SW8       30.04S
JOPLIN         SUNNY     63  44  50 S13       30.00F
WEST PLAINS    SUNNY     57  43  59 W12G22    30.01R

$$

IAZ060-094-KSZ022-034>040-054-083-096-NEZ052-066-093-231600-
...KANSAS...SOUTHEAST NEBRASKA AND IOWA...

CITY           SKY/WX    TMP DP  RH WIND       PRES   REMARKS
TOPEKA         MOSUNNY   55  44  66 W8        29.98R
MANHATTAN      CLOUDY    60  41  49 VRB7      30.03R
EMPORIA        PTSUNNY   58  40  51 NW15G21   30.01R
CHANUTE        MOSUNNY   56  43  61 W10       29.99R HAZE
WICHITA        CLOUDY    57  40  52 N20G28    30.06R
OMAHA          CLOUDY    61  40  45 N21G30    29.95R
LINCOLN        LGT RAIN  61  40  45 NW21G31   30.03R
FALLS CITY     CLOUDY    59  40  49 NW12G20   29.96R
LAMONI         SUNNY     54  42  64 W14       29.90R
DES MOINES     MOSUNNY   55  41  59 NW14G20   29.88R

$$




USA.gov is the U.S. government's official web portal to all federal, state and local government web resources and services.